ASTRA 1G
1 25071U 97076A   03037.00000000  .00000120  00000-0  10000-3 0  3897
2 25071   0.0122 319.8851 0002995  65.1991 129.8159  1.00273184 19015
INMARSAT 3-F5
1 25153U 98006B   03038.03923034  .00000145  00000-0  10000-3 0  8417
2 25153   0.4526 356.3786 0004512 320.8593 218.6620  1.00276425 18387
HOT BIRD 4
1 25237U 98013A   03013.80550721  .00000107  00000-0  10000-3 0  3250
2 25237   0.0242 116.4838 0007929 193.6371 105.7449  1.00276095 18185
NOAA 15
1 25338U 98030A   03041.09769587  .00000201  00000-0  10544-3 0    03
2 25338  98.5501  63.4770 0010519 346.9532  13.1374 14.24240470246599
RESURS O1-N4
1 25394U 98043A   03041.20344114  .00000158  00000-0  88049-4 0  4446
2 25394  98.6344 119.2873 0002105 116.2322 243.9073 14.23874550238342
TMSAT
1 25396U 98043C   03039.90628136 -.00000043  00000-0  00000+0 0  8210
2 25396  98.6277 117.1987 0003322 147.1878 212.9508 14.23508183238157
TECHSAT 1B
1 25397U 98043D   03035.63506632 -.00000043 +00000-0 -83465-7 0 01356
2 25397 098.6227 111.9131 0001642 150.2515 209.8757 14.22956023237511
ASTRA 2A
1 25462U 98050A   03037.00000000  .00000150  00000-0  00000+0 0  5300
2 25462   0.0385 308.7109 0004824 280.8620 294.3465  1.00272094 16318
EUTELSAT W2
1 25491U 98056A   03039.85113642  .00000113  00000-0  00000+0 0  5747
2 25491   0.0046 169.8842 0008510  54.3751 236.7585  1.00274117 15959
HOT BIRD 5
1 25495U 98057A   03038.05043983  .00000159  00000-0  00000+0 0  4999
2 25495   0.0465 259.5944 0004088  57.9351 230.4572  1.00271278 15906
SEDSAT 1
1 25509U 98061B   03040.62924852  .00000748  00000-0  13589-3 0  7750
2 25509  31.4275 203.6652 0357910 224.8805 132.2348 14.27417029224034
PAN SAT
1 25520U 98064B   03039.80240170  .00002834  00000-0  14248-3 0  6365
2 25520  28.4596 288.9042 0006109 243.0057 116.9936 15.13828821236106
ISS (ZARYA)
1 25544U 98067A   03041.49156250  .00032663  00000-0  39124-3 0  6720
2 25544  51.6367 296.5301 0005440 132.0776 234.5537 15.60627092241245
ORSTED
1 25635U 99008B   03041.49483399  .00001133  00000-0  29415-3 0  8287
2 25635  96.4497  29.6596 0145707 355.3727   4.6114 14.44822187208776
SUNSAT
1 25636U 99008C   03038.55291413  .00000490  00000-0  13615-3 0  6621
2 25636  96.4518  26.1016 0149921  10.9325 349.5068 14.42941244208223
UOSAT 12
1 25693U 99021A   03041.48948523  .00000485  00000-0  89287-4 0  6933
2 25693  64.5598  35.5133 0019501 315.8652  44.0889 14.76377878205064
FENGYUN 1C
1 25730U 99025A   03041.21903749  .00000025  00000-0  36773-4 0  7631
2 25730  98.6340  65.9324 0014762  30.1252 330.0766 14.11733228193450
ASTRA 1H
1 25785U 99033A   03037.00000000  .00000120  00000-0  10000-3 0  3704
2 25785   0.0122 319.8851 0002995  65.1991 129.8363  1.00273184 13377
TERRA
1 25994U 99068A   03041.27850608  .00000546  00000-0  13121-3 0  6831
2 25994  98.2001 117.6266 0000884  83.4557 276.6742 14.57121611167469
JAWSAT
1 26061U 00004A   03040.88063621  .00000561  00000-0  20455-3 0  7618
2 26061 100.2092  96.3373 0034805 304.4344  55.3549 14.37813912159289
OPAL
1 26063U 00004C   03040.70323166  .00000149  00000-0  71861-4 0  7175
2 26063 100.2142  93.6745 0037119 312.3243  47.4798 14.35477268159115
ASUSAT
1 26065U 00004E   03041.56636998  .00000187  00000-0  85034-4 0  7306
2 26065 100.2112  94.8406 0037020 310.8914  48.9062 14.35505115159236
GOES 11
1 26352U 00022A   03040.34226223 -.00000026  00000-0  10000-3 0   166
2 26352   0.1169 104.3657 0003610 219.8219 184.8358  1.00264164 10142
EUTELSAT W4
1 26369U 00028A   03039.84001060  .00000164  00000-0  00000+0 0  3501
2 26369   0.0325   7.9327 0003027 312.8179 156.2443  1.00273917  9957
FENGYUN 2B
1 26382U 00032A   03040.61627633 -.00000319  00000-0  00000+0 0  7909
2 26382   0.5793 286.5684 0001624 227.8778 310.8914  1.00280736  9620
EUTELSAT W1
1 26487U 00052A   03036.85585087  .00000068  00000-0  10000-3 0  3512
2 26487   0.0062 160.2856 0003572  62.0616 231.3266  1.00273797  8897
ASTRA 2B
1 26494U 00054A   03037.00000000  .00000150  00000-0  00000+0 0  2535
2 26494   0.0178 354.5658 0005000 302.8402 226.4937  1.00276704  8797
NOAA 16
1 26536U 00055A   03040.86539598  .00000180  00000-0  12287-3 0  2021
2 26536  98.9015 349.2131 0010052 334.7642  25.3202 14.11898352122928
SAUDISAT 1A
1 26545U 00057A   03039.80875919  .00001267  00000-0  18675-3 0  4098
2 26545  64.5586  61.9203 0052852 240.2759 119.3124 14.78953300127775
UNISAT
1 26547U 00057C   03040.13808769  .00002057  00000-0  28408-3 0  4281
2 26547  64.5575  63.1785 0059876 242.6618 116.8385 14.79702735127795
TIUNGSAT 1
1 26548U 00057D   03041.12912647  .00001760  00000-0  23982-3 0  4139
2 26548  64.5582  50.8446 0046004 239.1194 120.5369 14.81239637128110
SAUDISAT 1B
1 26549U 00057E   03041.19117529  .00001175  00000-0  17831-3 0  6883
2 26549  64.5530  61.7425 0057113 240.3066 119.2337 14.77895526127903
AMSAT OSCAR 40
1 26609U 00072B   03035.10689355 -.00000169 +00000-0 +10000-3 0 03108
2 26609 008.0513 066.8265 7939440 140.0872 318.9916 01.25596472010406
GOES 12
1 26871U 01031A   03038.59289693 -.00000140  00000-0  10000-3 0  8106
2 26871   0.3528 276.6744 0003201 358.7723 337.2121  1.00363477  5725
PCSAT
1 26931U 01043C   03041.54699581  .00000213  00000-0  11627-3 0  3983
2 26931  67.0478 276.2669 0004973 262.9850  97.0684 14.29111201 71204
SAPPHIRE
1 26932U 01043D   03040.54638762  .00000123  00000-0  80730-4 0  3923
2 26932  67.0555 278.5501 0005271 239.7735 120.2844 14.29290958 71087
ENVISAT
1 27386U 02009A   03041.44126383  .00000219  00000-0  97312-4 0  9264
2 27386  98.5461 110.1072 0000951 101.0896 259.0396 14.32255711 49584
IDEFIX/ARIANE 42P
1 27422U 02021B   03041.19408698  .00000256  00000-0  12124-3 0  2297
2 27422  98.6953 120.4342 0012810 170.8307 189.3109 14.27965079 40266
FENGYUN 1D
1 27431U 02024B   03040.86127101 -.00000026  00000-0  96537-5 0  2119
2 27431  98.7708  90.0771 0015890 146.7505 213.4665 14.09177794 38145
NOAA 17
1 27453U 02032A   03041.12970817  .00000294  00000-0  14934-3 0  2982
2 27453  98.7597 112.3855 0012317  24.8073 335.3700 14.23288166 32761
HOT BIRD 6
1 27499U 02038A   03013.80550721  .00000106  00000-0  10000-3 0   665
2 27499   0.0928  32.8693 0008090 290.3889  92.5421  1.00271722  1476
RUBIN 2
1 27605U 02058A   03041.08409080 -.00002477  00000-0 -37423-3 0   526
2 27605  64.5534 223.0044 0034045 117.0666 243.3922 14.71333919  7561
